When you browse on this site, cookies collect data to enhance your experience and personalize the content and advertising you see.
Visit our Privacy Policy to learn more. By continuing to use the site, you agree to this use of cookies and data.
  • In Hungary
  • List of Countries
  • For 7 days
  • Water Temperature
  • Weather Map
  • News
  • Weather Widgets
  • user-avatar
    Login

    Hourly Weather Sarafovo

    Today, 11 November, Monday

    Time Temperature Precipitation Wind Pressure Humidity
    00:00 +17°C° 0 mm 3 mps 758 mmHg 81%
    01:00 +17°C° 0 mm 3 mps 758 mmHg 83%
    02:00 +16°C° 0 mm 2 mps 759 mmHg 86%
    03:00 +16°C° 0 mm 2 mps 759 mmHg 86%
    04:00 +15°C° 0 mm 1 mps 759 mmHg 86%
    05:00 +15°C° 0 mm 1 mps 759 mmHg 87%
    06:00 +15°C° 0 mm 1 mps 760 mmHg 84%
    07:00 +15°C° 0 mm 1 mps 760 mmHg 82%
    08:00 +16°C° 0 mm 1 mps 761 mmHg 80%
    09:00 +19°C° 0 mm 1 mps 761 mmHg 72%
    10:00 +20°C° 0 mm 1 mps 761 mmHg 64%
    11:00 +21°C° 0 mm 1 mps 761 mmHg 57%
    12:00 +22°C° 0 mm 1 mps 760 mmHg 55%
    13:00 +21°C° 0 mm 2 mps 760 mmHg 54%
    14:00 +21°C° 0 mm 2 mps 760 mmHg 51%
    15:00 +20°C° 0 mm 2 mps 760 mmHg 57%
    16:00 +19°C° 0 mm 2 mps 760 mmHg 64%
    17:00 +18°C° 0 mm 2 mps 760 mmHg 71%
    18:00 +17°C° 0 mm 2 mps 760 mmHg 74%
    19:00 +17°C° 0 mm 2 mps 760 mmHg 77%
    20:00 +16°C° 0 mm 2 mps 761 mmHg 80%
    21:00 +16°C° 0 mm 2 mps 760 mmHg 84%
    22:00 +16°C° 0 mm 2 mps 760 mmHg 87%
    23:00 +15°C° 0 mm 1 mps 760 mmHg 91%

    Tomorrow, 12 November, Tuesday

    Time Temperature Precipitation Wind Pressure Humidity
    00:00 +15°C° 0 mm 2 mps 760 mmHg 92%
    01:00 +15°C° 0 mm 2 mps 760 mmHg 93%
    02:00 +15°C° 0 mm 2 mps 760 mmHg 93%
    03:00 +15°C° 0 mm 2 mps 760 mmHg 93%
    04:00 +15°C° 0 mm 2 mps 760 mmHg 93%
    05:00 +15°C° 0 mm 2 mps 760 mmHg 93%
    06:00 +15°C° 0 mm 2 mps 760 mmHg 93%
    07:00 +16°C° 0 mm 2 mps 760 mmHg 93%
    08:00 +16°C° 0 mm 2 mps 760 mmHg 93%
    09:00 +18°C° 0 mm 2 mps 760 mmHg 83%
    10:00 +19°C° 0 mm 3 mps 760 mmHg 72%
    11:00 +21°C° 0 mm 3 mps 761 mmHg 62%
    12:00 +21°C° 0 mm 3 mps 760 mmHg 61%
    13:00 +22°C° 0 mm 4 mps 760 mmHg 59%
    14:00 +22°C° 0 mm 4 mps 759 mmHg 57%
    15:00 +21°C° 0 mm 4 mps 759 mmHg 65%
    16:00 +19°C° 0 mm 4 mps 759 mmHg 72%
    17:00 +18°C° 0 mm 3 mps 758 mmHg 79%
    18:00 +17°C° 0 mm 3 mps 758 mmHg 82%
    19:00 +16°C° 0 mm 2 mps 758 mmHg 86%
    20:00 +16°C° 0 mm 2 mps 759 mmHg 89%
    21:00 +16°C° 0 mm 2 mps 758 mmHg 89%
    22:00 +16°C° 0 mm 2 mps 758 mmHg 88%
    23:00 +15°C° 0 mm 2 mps 758 mmHg 88%

    Day after tomorrow, 13 November, Wednesday

    Time Temperature Precipitation Wind Pressure Humidity
    00:00 +15°C° 0 mm 2 mps 758 mmHg 88%
    01:00 +15°C° 0 mm 2 mps 758 mmHg 88%
    02:00 +15°C° 0 mm 2 mps 757 mmHg 88%
    03:00 +15°C° 0 mm 2 mps 757 mmHg 87%
    04:00 +15°C° 0 mm 2 mps 757 mmHg 85%
    05:00 +15°C° 0 mm 2 mps 757 mmHg 84%
    06:00 +15°C° 0 mm 2 mps 757 mmHg 81%
    07:00 +16°C° 0 mm 2 mps 756 mmHg 78%
    08:00 +16°C° 0 mm 2 mps 756 mmHg 75%
    09:00 +18°C° 0 mm 2 mps 756 mmHg 68%
    10:00 +20°C° 0 mm 3 mps 756 mmHg 61%
    11:00 +22°C° 0 mm 3 mps 756 mmHg 54%
    12:00 +23°C° 0 mm 2 mps 756 mmHg 50%
    13:00 +24°C° 0 mm 2 mps 756 mmHg 47%
    14:00 +25°C° 0 mm 2 mps 755 mmHg 44%
    15:00 +23°C° 0 mm 2 mps 755 mmHg 49%
    16:00 +21°C° 0 mm 2 mps 755 mmHg 54%
    17:00 +19°C° 0 mm 2 mps 755 mmHg 60%
    18:00 +19°C° 0 mm 2 mps 755 mmHg 61%
    19:00 +19°C° 0 mm 2 mps 755 mmHg 62%
    20:00 +18°C° 0 mm 2 mps 755 mmHg 64%
    21:00 +18°C° 0 mm 2 mps 755 mmHg 65%
    22:00 +18°C° 0 mm 2 mps 755 mmHg 66%
    23:00 +18°C° 0 mm 2 mps 755 mmHg 67%

    14 November, Thursday

    Time Temperature Precipitation Wind Pressure Humidity
    00:00 +17°C° 0 mm 2 mps 755 mmHg 70%
    01:00 +18°C° 0 mm 1 mps 755 mmHg 73%
    02:00 +18°C° 0 mm 1 mps 754 mmHg 77%
    03:00 +16°C° 0 mm 1 mps 754 mmHg 80%
    04:00 +16°C° 0 mm 1 mps 754 mmHg 83%
    05:00 +16°C° 0 mm 1 mps 754 mmHg 87%
    06:00 +16°C° 0 mm 1 mps 754 mmHg 87%
    07:00 +16°C° 0 mm 1 mps 754 mmHg 87%
    08:00 +16°C° 0 mm 1 mps 754 mmHg 87%
    09:00 +18°C° 0 mm 1 mps 754 mmHg 80%
    10:00 +19°C° 0 mm 1 mps 754 mmHg 73%
    11:00 +20°C° 0 mm 1 mps 754 mmHg 66%
    12:00 +21°C° 0 mm 1 mps 754 mmHg 63%
    13:00 +22°C° 0 mm 1 mps 754 mmHg 60%
    14:00 +22°C° 0 mm 1 mps 754 mmHg 57%
    15:00 +21°C° 0.1 mm 1 mps 754 mmHg 62%
    16:00 +21°C° 0.1 mm 1 mps 754 mmHg 67%
    17:00 +20°C° 0.1 mm 1 mps 754 mmHg 71%
    18:00 +19°C° 0.2 mm 1 mps 754 mmHg 74%
    19:00 +19°C° 0.2 mm 1 mps 755 mmHg 77%
    20:00 +18°C° 0.2 mm 1 mps 755 mmHg 80%
    21:00 +18°C° 0.1 mm 1 mps 755 mmHg 82%
    22:00 +18°C° 0.1 mm 1 mps 755 mmHg 83%
    23:00 +18°C° 0.1 mm 1 mps 756 mmHg 85%

    15 November, Friday

    Time Temperature Precipitation Wind Pressure Humidity
    00:00 +16°C° 0 mm 1 mps 756 mmHg 85%
    01:00 +16°C° 0 mm 1 mps 756 mmHg 86%
    02:00 +16°C° 0 mm 1 mps 756 mmHg 87%
    03:00 +16°C° 0 mm 1 mps 756 mmHg 88%
    04:00 +15°C° 0 mm 1 mps 756 mmHg 89%
    05:00 +15°C° 0 mm 1 mps 757 mmHg 90%
    06:00 +15°C° 0 mm 1 mps 757 mmHg 90%
    07:00 +15°C° 0 mm 1 mps 757 mmHg 89%
    08:00 +15°C° 0 mm 1 mps 757 mmHg 88%
    09:00 +16°C° 0 mm 2 mps 758 mmHg 83%
    10:00 +17°C° 0 mm 2 mps 758 mmHg 77%
    11:00 +18°C° 0 mm 3 mps 758 mmHg 71%
    12:00 +19°C° 0 mm 3 mps 758 mmHg 68%
    13:00 +19°C° 0 mm 2 mps 758 mmHg 66%
    14:00 +20°C° 0 mm 2 mps 758 mmHg 64%
    15:00 +19°C° 0 mm 2 mps 758 mmHg 66%
    16:00 +19°C° 0 mm 1 mps 759 mmHg 68%
    17:00 +19°C° 0 mm 1 mps 759 mmHg 71%
    18:00 +18°C° 0 mm 1 mps 759 mmHg 74%
    19:00 +18°C° 0 mm 1 mps 759 mmHg 77%
    20:00 +16°C° 0 mm 1 mps 760 mmHg 80%
    21:00 +16°C° 0 mm 1 mps 760 mmHg 81%
    22:00 +15°C° 0 mm 1 mps 760 mmHg 82%
    23:00 +14°C° 0 mm 0 mps 760 mmHg 83%

    16 November, Saturday

    Time Temperature Precipitation Wind Pressure Humidity
    00:00 +14°C° 0 mm 0 mps 761 mmHg 84%
    01:00 +14°C° 0 mm 0 mps 761 mmHg 85%
    02:00 +13°C° 0 mm 0 mps 761 mmHg 85%
    03:00 +13°C° 0 mm 0 mps 761 mmHg 86%
    04:00 +13°C° 0 mm 0 mps 761 mmHg 86%
    05:00 +13°C° 0 mm 0 mps 761 mmHg 87%
    06:00 +13°C° 0 mm 0 mps 761 mmHg 86%
    07:00 +13°C° 0 mm 0 mps 762 mmHg 85%
    08:00 +13°C° 0 mm 0 mps 762 mmHg 84%
    09:00 +15°C° 0 mm 0 mps 762 mmHg 78%
    10:00 +16°C° 0 mm 0 mps 762 mmHg 71%
    11:00 +20°C° 0 mm 1 mps 762 mmHg 65%
    12:00 +20°C° 0 mm 1 mps 762 mmHg 62%
    13:00 +21°C° 0 mm 1 mps 762 mmHg 60%
    14:00 +20°C° 0 mm 2 mps 761 mmHg 57%
    15:00 +19°C° 0 mm 2 mps 761 mmHg 65%
    16:00 +18°C° 0 mm 2 mps 761 mmHg 72%
    17:00 +17°C° 0 mm 2 mps 762 mmHg 80%
    18:00 +16°C° 0 mm 2 mps 762 mmHg 84%
    19:00 +15°C° 0 mm 2 mps 762 mmHg 88%
    20:00 +15°C° 0 mm 2 mps 762 mmHg 92%
    21:00 +15°C° 0 mm 2 mps 762 mmHg 93%
    22:00 +15°C° 0 mm 2 mps 762 mmHg 95%
    23:00 +14°C° 0 mm 2 mps 762 mmHg 96%
    Show more